Incline Creek, Nevada Weather observations

Data are for observation ending at time listed.
 Day   Time    Ave.   Ave.  Ave.  Vector   Max.   Stn.    Total    Solar   Ave.   Snow 
  of    of     Air    Rel.  Wind   Wind    Wind   Baro.  Precip.   Rad.    Soil   Depth
Year   Day     Temp.  Hum.  Speed  Dir.    Gust   Pres.                    Temp.       
2016   (PST)    F      %     mph   deg.    mph     mb.     in.     W/m2     F      in. 
---------------------------------------------------------------------------------------  
 269    4:20   53.9    31    5.3   296     17.5   999.0    0.00       0    999.0   83.9
 269    4:30   53.6    31    6.0   303     13.8   999.0    0.00       0    999.0   83.9
 269    4:40   53.5    30    4.6   340     11.9   999.0    0.00       0    999.0   83.9
 269    4:50   53.6    29    4.3   318      8.8   999.0    0.00       0    999.0   83.9
 269    5:00   53.5    28    5.6   336     11.2   999.0    0.00       0    999.0   83.9
 269    5:10   53.3    28    6.5   318     14.6   999.0    0.00       0    999.0   83.9
 269    5:20   53.0    28    4.8   332     10.6   999.0    0.00       0    999.0   83.9
 269    5:30   52.9    28    4.7   315     11.8   999.0    0.00       0    999.0   83.9
 269    5:40   52.8    28    5.4   328     15.3   999.0    0.00       0    999.0   83.9
 269    5:50   52.8    28    6.3   330     11.3   999.0    0.00       2    999.0   83.9
 269    6:00   53.0    28    6.4   334     13.8   999.0    0.00       4    999.0   83.9
 269    6:10   53.0    28    4.5   336     13.6   999.0    0.00       7    999.0   83.9
 269    6:20   53.2    28    6.3   358     14.2   999.0    0.00       9    999.0   83.9
 269    6:30   53.2    28    7.0   353     16.4   999.0    0.00      10    999.0   83.9
 269    6:40   53.3    28    6.5   344     17.0   999.0    0.00      12    999.0   83.9
 269    6:50   53.1    29    6.0   347     16.6   999.0    0.00      13    999.0   83.9
 269    7:00   52.9    29    5.8   356     14.7   999.0    0.00      14    999.0   83.9
 269    7:10   53.0    29    5.4   341     13.8   999.0    0.00      37    999.0   83.9
 269    7:20   53.8    28    6.3   348     13.6   999.0    0.00     248    999.0   83.9
 269    7:30   54.5    27    5.0    19     13.7   999.0    0.00     291    999.0   83.9
 269    7:40   54.8    27    5.0     2     14.2   999.0    0.00     317    999.0   83.9
 269    7:50   55.4    27    3.9    19     13.6   999.0    0.00     354    999.0   83.9
 269    8:00   56.2    26    3.7     8      9.4   999.0    0.00     390    999.0   83.9
 269    8:10   56.8    25    4.5     7      9.0   999.0    0.00     422    999.0   83.9
 269    8:20   57.2    24    5.1    11     13.5   999.0    0.00     453    999.0   83.9
 269    8:30   57.6    23    5.0    13     10.7   999.0    0.00     484    999.0   83.9
 269    8:40   58.1    23    5.4    21     14.2   999.0    0.00     514    999.0   83.9
 269    8:50   58.5    22    5.7   359     16.7   999.0    0.00     542    999.0   83.9
 269    9:00   58.7    22    6.5   352     15.0   999.0    0.00     570    999.0   83.9
 269    9:10   58.9    22    5.1    28     21.0   999.0    0.00     596    999.0    0.0
 269    9:20   59.4    21    6.0   334     16.4   999.0    0.00     622    999.0   83.9
 269    9:30   59.5    20    6.3   352     15.4   999.0    0.00     646    999.0   83.9
 269    9:40   60.4    19    5.9     1     13.0   999.0    0.00     669    999.0   83.9
 269    9:50   60.7    18    6.4   336     16.5   999.0    0.00     690    999.0   83.9
 269   10:00   60.5    18    7.7   332     16.0   999.0    0.00     710    999.0   83.9
 269   10:10   61.3    17    5.5   334     15.2   999.0    0.00     727    999.0   83.9
 269   10:20   61.9    15    6.8   327     19.3   999.0    0.00     742    999.0   83.9
 269   10:30   61.6    15    5.2    43     15.7   999.0    0.00     758    999.0   83.9
 269   10:40   62.0    15    5.6   348     16.0   999.0    0.00     772    999.0    0.0
 269   10:50   62.0    15    6.9     4     16.9   999.0    0.00     785    999.0    0.0
 269   11:00   62.4    16    5.9     0     16.0   999.0    0.00     796    999.0   83.9
 269   11:10   63.2    14    4.6    42     13.4   999.0    0.00     805    999.0    0.0
 269   11:20   63.7    14    7.3   344     14.0   999.0    0.00     812    999.0   83.9
 269   11:30   63.8    14    5.6   316     16.8   999.0    0.00     816    999.0    0.0
 269   11:40   63.7    14    6.6   338     21.6   999.0    0.00     820    999.0    0.0
 269   11:50   63.8    14    4.7   129     13.5   999.0    0.00     822    999.0    0.0
 269   12:00   65.0    13    4.2   210     13.4   999.0    0.00     823    999.0    0.0
 269   12:10   64.9    13    7.4   335     14.8   999.0    0.00     820    999.0   83.9
 269   12:20   65.1    13    6.4    79     18.9   999.0    0.00     817    999.0   83.9
 269   12:30   65.3    13    6.3   314     17.6   999.0    0.00     812    999.0   83.9
 269   12:40   66.2    12    4.9   312     11.0   999.0    0.00     805    999.0   83.9
 269   12:50   66.6    12    4.6    15     12.9   999.0    0.00     798    999.0   83.9
 269   13:00   66.6    12    5.0    70     12.8   999.0    0.00     788    999.0   83.9
 269   13:10   66.5    12    5.8   350     15.2   999.0    0.00     779    999.0    0.0
 269   13:20   66.3    13    6.0   300     14.0   999.0    0.00     769    999.0   83.9
 269   13:30   66.2    13    6.2   356     18.9   999.0    0.00     756    999.0   83.9
 269   13:40   66.2    14    5.1    66     13.5   999.0    0.00     739    999.0   83.9
 269   13:50   66.7    15    6.9   327     16.1   999.0    0.00     690    999.0   83.9
 269   14:00   67.2    14    4.2   277     13.9   999.0    0.00     654    999.0   83.9
 269   14:10   67.0    14    4.9   339     11.3   999.0    0.00     632    999.0    0.0
 269   14:20   66.8    15    5.8   298     14.9   999.0    0.00     640    999.0   83.9
 269   14:30   67.3    14    3.9    59     11.8   999.0    0.00     619    999.0   83.9
 269   14:40   68.1    14    3.8     9     12.8   999.0    0.00     591    999.0   83.9
 269   14:50   67.8    14    5.1   313     13.2   999.0    0.00     566    999.0   83.9
 269   15:00   67.4    14    5.7    16     14.6   999.0    0.00     539    999.0   83.9
 269   15:10   67.2    14    5.6    57     15.0   999.0    0.00     510    999.0   83.9
 269   15:20   67.0    14    5.4   348     16.0   999.0    0.00     480    999.0   83.9
 269   15:30   67.0    14    5.2   342     14.2   999.0    0.00     448    999.0   83.9
 269   15:40   66.9    14    5.0   328     21.2   999.0    0.00     416    999.0   83.9
 269   15:50   67.2    14    5.0   331     13.4   999.0    0.00     384    999.0   83.9
 269   16:00   67.2    14    4.6   332     13.5   999.0    0.00     351    999.0   83.9
 269   16:10   66.7    14    4.3   333     13.5   999.0    0.00     227    999.0    0.0
 269   16:20   65.8    14    5.1   354     11.5   999.0    0.00      21    999.0    0.0
 269   16:30   65.6    14    4.6   348     13.2   999.0    0.00      18    999.0    0.0
 269   16:40   65.5    15    4.2    31     10.5   999.0    0.00      17    999.0   83.9
 269   16:50   65.2    15    4.0   353     11.4   999.0    0.00      16    999.0    0.0
 269   17:00   64.8    16    4.1    59     12.8   999.0    0.00      14    999.0   83.9
 269   17:10   64.4    16    3.8    63     10.8   999.0    0.00      13    999.0   83.9
 269   17:20   63.8    16    5.5     2     12.8   999.0    0.00      12    999.0   83.9
 269   17:30   63.3    17    4.6   357     12.6   999.0    0.00      10    999.0   83.9
 269   17:40   63.0    17    3.4   336     12.1   999.0    0.00       8    999.0   83.9
 269   17:50   62.4    18    2.4    20      5.9   999.0    0.00       5    999.0    0.0
 269   18:00   62.4    18    3.4    66      7.7   999.0    0.00       2    999.0   83.9
 269   18:10   60.9    19    1.6   338      3.2   999.0    0.00       0    999.0   83.9
 269   18:20   59.5    20    1.5   332      4.6   999.0    0.00       0    999.0   83.9
 269   18:30   60.2    20    2.0   334      8.6   999.0    0.00       0    999.0   83.9
 269   18:40   59.8    20    1.4   352      3.9   999.0    0.00       0    999.0    0.0
 269   18:50   59.4    20    1.5    14      4.1   999.0    0.00       0    999.0   83.9
 269   19:00   58.5    21    1.8    16      4.9   999.0    0.00       0    999.0   83.9
 269   19:10   59.1    20    3.0    51      9.2   999.0    0.00       0    999.0   83.9
 269   19:20   60.9    18    4.3    38     11.3   999.0    0.00       0    999.0    0.0
 269   19:30   60.9    18    3.9    10     14.2   999.0    0.00       0    999.0   83.9
 269   19:40   61.6    18    4.5   351     11.6   999.0    0.00       0    999.0   83.9
 269   19:50   61.6    18    5.1     9     13.0   999.0    0.00       0    999.0   83.9
 269   20:00   61.8    18    4.7     9     10.8   999.0    0.00       0    999.0   83.9
 269   20:10   61.8    18    4.2     2      9.6   999.0    0.00       0    999.0    0.0
 269   20:20   61.6    18    4.7   358     12.6   999.0    0.00       0    999.0   83.9
 269   20:30   61.5    19    3.1    11     10.7   999.0    0.00       0    999.0   83.9
 269   20:40   61.6    18    4.4   357     10.9   999.0    0.00       0    999.0   83.9
 269   20:50   62.0    18    4.6   356     13.3   999.0    0.00       0    999.0   83.9
 269   21:00   62.2    18    5.5    29     14.2   999.0    0.00       0    999.0   83.9
 269   21:10   62.5    18    6.0   349     15.0   999.0    0.00       0    999.0   83.9
 269   21:20   62.4    18    5.6   328     15.8   999.0    0.00       0    999.0   83.9
 269   21:30   62.4    18    6.3   356     13.7   999.0    0.00       0    999.0   83.9
 269   21:40   62.5    18    6.0     1     13.1   999.0    0.00       0    999.0   83.9
 269   21:50   62.3    18    5.8   354     12.4   999.0    0.00       0    999.0   83.9
 269   22:00   62.3    19    4.4   328     11.5   999.0    0.00       0    999.0   83.9
 269   22:10   62.3    19    5.3   344     15.5   999.0    0.00       0    999.0   83.9
 269   22:20   62.2    19    4.9   342     15.7   999.0    0.00       0    999.0   83.9
 269   22:30   61.9    19    4.1   328     11.3   999.0    0.00       0    999.0   83.9
 269   22:40   61.9    19    3.3   297     12.7   999.0    0.00       0    999.0   83.9
 269   22:50   61.9    19    4.6   325     12.5   999.0    0.00       0    999.0   83.9
 269   23:00   62.0    19    5.9   356     17.7   999.0    0.00       0    999.0   83.9
 269   23:10   61.9    19    5.3   336     11.6   999.0    0.00       0    999.0   83.9
 269   23:20   61.6    20    4.9   346     12.2   999.0    0.00       0    999.0   83.9
 269   23:30   61.4    20    6.1   344     14.1   999.0    0.00       0    999.0   83.9
 269   23:40   61.2    20    4.3   328     10.5   999.0    0.00       0    999.0   83.9
 269   23:50   61.2    20    5.6   324     14.9   999.0    0.00       0    999.0   83.9
 270    0:00   61.0    20    4.8   315     10.3   999.0    0.00       0    999.0   83.9
 270    0:10   60.9    20    3.7     1      9.5   999.0    0.00       0    999.0   83.9
 270    0:20   60.8    20    4.7   319     11.9   999.0    0.00       0    999.0   83.9
 270    0:30   60.5    21    3.6   315     10.3   999.0    0.00       0    999.0   83.9
 270    0:40   60.0    21    3.2   326      7.1   999.0    0.00       0    999.0   83.9
 270    0:50   59.7    22    3.3   328      7.4   999.0    0.00       0    999.0   83.9
 270    1:00   59.8    22    3.3   343      6.4   999.0    0.00       0    999.0   83.9
 270    1:10   58.7    23    2.3   312      7.1   999.0    0.00       0    999.0   83.9
 270    1:20   57.1    25    2.2   314      5.3   999.0    0.00       0    999.0   83.9
 270    1:30   56.2    26    1.9   336      5.2   999.0    0.00       0    999.0   83.9
 270    1:40   54.5    28    1.8   337      6.0   999.0    0.00       0    999.0   83.9
 270    1:50   54.2    28    2.6   351      4.5   999.0    0.00       0    999.0   83.9
 270    2:00   53.8    29    2.0   341      4.4   999.0    0.00       0    999.0   83.9
 270    2:10   53.1    29    1.8   343      5.3   999.0    0.00       0    999.0   83.9
 270    2:20   53.0    30    1.6   356      3.9   999.0    0.00       0    999.0   83.9
 270    2:30   51.8    31    1.7   355      3.5   999.0    0.00       0    999.0   83.9
 270    2:40   52.8    30    3.0   349      5.3   999.0    0.00       0    999.0   83.9
 270    2:50   55.5    27    4.6    10      9.5   999.0    0.00       0    999.0   83.9
 270    3:00   58.5    24    4.0   316      8.8   999.0    0.00       0    999.0   83.9
 270    3:10   58.2    24    2.4   300      5.7   999.0    0.00       0    999.0   83.9
 270    3:20   56.8    26    1.8   316      5.0   999.0    0.00       0    999.0   83.9
 270    3:30   55.5    27    1.9   340      4.2   999.0    0.00       0    999.0   83.9
 270    3:40   56.0    26    2.4   348      7.7   999.0    0.00       0    999.0   83.9
 270    3:50   57.6    24    2.0   314      3.9   999.0    0.00       0    999.0    0.0
 270    4:00   56.6    26    1.6   346      3.9   999.0    0.00       0    999.0   83.9
 270    4:10   56.1    26    2.5   311      7.6   999.0    0.00       0    999.0   83.9

Return to Incline Creek graphs page.


Western Regional Climate Center,wrcc@dri.edu